TimeEDT,TemperatureF,Dew PointF,Humidity,Sea Level PressureIn,VisibilityMPH,Wind Direction,Wind SpeedMPH,Gust SpeedMPH,PrecipitationIn,Events,Conditions,WindDirDegrees,DateUTC
12:13 AM,57.2,55.4,94,29.84,10.0,South,6.9,-,N/A,,Overcast,190,2013-10-17 04:13:00
12:53 AM,57.9,55.0,90,29.85,10.0,SSW,5.8,-,N/A,,Scattered Clouds,200,2013-10-17 04:53:00
1:53 AM,57.9,55.0,90,29.84,10.0,SSW,4.6,-,N/A,,Overcast,210,2013-10-17 05:53:00
2:53 AM,57.9,55.0,90,29.84,10.0,SW,3.5,-,N/A,,Overcast,230,2013-10-17 06:53:00
3:53 AM,57.9,55.0,90,29.84,10.0,West,3.5,-,N/A,,Overcast,260,2013-10-17 07:53:00
4:18 AM,57.2,55.4,94,29.83,7.0,WNW,3.5,-,0.01,Rain,Light Rain,290,2013-10-17 08:18:00
4:28 AM,57.2,55.4,94,29.83,10.0,SSW,4.6,-,0.01,Rain,Light Rain,200,2013-10-17 08:28:00
4:53 AM,57.0,55.9,96,29.83,9.0,South,3.5,-,0.01,,Overcast,180,2013-10-17 08:53:00
5:29 AM,57.2,55.4,94,29.82,2.5,SSW,5.8,-,N/A,,Overcast,200,2013-10-17 09:29:00
5:39 AM,57.2,55.4,94,29.82,5.0,South,6.9,-,N/A,,Overcast,190,2013-10-17 09:39:00
5:53 AM,57.9,55.9,93,29.84,9.0,South,8.1,-,N/A,,Overcast,190,2013-10-17 09:53:00
6:53 AM,57.0,55.9,96,29.86,10.0,South,4.6,-,N/A,,Overcast,170,2013-10-17 10:53:00
7:53 AM,57.0,55.0,93,29.86,10.0,SSW,6.9,-,N/A,,Overcast,200,2013-10-17 11:53:00
8:53 AM,60.1,51.1,72,29.87,10.0,SW,4.6,-,N/A,,Clear,230,2013-10-17 12:53:00
9:53 AM,61.0,48.0,62,29.87,10.0,SW,8.1,16.1,N/A,,Clear,220,2013-10-17 13:53:00
10:53 AM,62.1,48.9,62,29.86,10.0,WSW,9.2,-,N/A,,Clear,240,2013-10-17 14:53:00
11:53 AM,64.9,46.9,52,29.86,10.0,West,6.9,-,N/A,,Clear,280,2013-10-17 15:53:00
12:53 PM,64.0,46.0,52,29.83,10.0,West,6.9,-,N/A,,Scattered Clouds,280,2013-10-17 16:53:00
1:53 PM,66.0,48.0,52,29.81,10.0,Calm,Calm,-,N/A,,Mostly Cloudy,0,2013-10-17 17:53:00
2:53 PM,66.9,46.9,49,29.80,10.0,Variable,3.5,-,N/A,,Mostly Cloudy,0,2013-10-17 18:53:00
3:53 PM,66.9,46.9,49,29.78,10.0,South,8.1,-,N/A,,Scattered Clouds,170,2013-10-17 19:53:00
4:53 PM,66.9,45.0,45,29.77,10.0,SSW,6.9,-,N/A,,Partly Cloudy,210,2013-10-17 20:53:00
5:53 PM,64.9,43.0,45,29.77,10.0,Calm,Calm,-,N/A,,Clear,0,2013-10-17 21:53:00
6:53 PM,55.9,45.0,67,29.75,10.0,Calm,Calm,-,N/A,,Clear,0,2013-10-17 22:53:00
7:53 PM,51.1,45.0,80,29.74,10.0,Calm,Calm,-,N/A,,Clear,0,2013-10-17 23:53:00
8:53 PM,51.1,46.9,86,29.71,10.0,Calm,Calm,-,0.00,Rain,Light Rain,0,2013-10-18 00:53:00
9:53 PM,55.0,50.0,83,29.69,10.0,North,3.5,-,0.00,,Overcast,350,2013-10-18 01:53:00
10:53 PM,54.0,52.0,93,29.68,9.0,North,9.2,-,0.09,Rain,Light Rain,360,2013-10-18 02:53:00
11:43 PM,53.6,53.6,100,29.64,5.0,North,5.8,-,0.14,Rain,Light Rain,350,2013-10-18 03:43:00
11:53 PM,54.0,53.1,97,29.64,2.5,North,4.6,-,0.18,Rain,Rain,10,2013-10-18 03:53:00